Regional Weather Roundup
Issued by NWS

Home | Current Version | Previous Version | Graphics & Text | Print | Product List | Glossary On
Versions: 1 2 3 4 5 6 7 8 9 10 11 12 13 14 15 16 17 18 19 20 21 22 23 24 25 26 27 28 29 30 31 32 33 34 35 36 37 38 39 40 41 42 43 44 45 46 47 48 49 50
000
ASUS44 KMEG 241210
RWRTN
TENNESSEE HOURLY STATE WEATHER ROUNDUP
NATIONAL WEATHER SERVICE MEMPHIS TN
700 AM CDT SUN SEP 24 2017

TNZ002-004-019-021-049-052-054-088>092-241300-
WEST TENNESSEE

CITY           SKY/WX    TMP DP  RH WIND       PRES   REMARKS
MEMPHIS INTL   CLEAR     74  69  85 SE3       30.01S
NWS MEMPHIS      N/A     69 N/A N/A MISG        N/A
JACKSON        CLEAR     69  68  96 CALM      30.04R FOG
DYERSBURG      CLEAR     68  68 100 CALM      30.03R FOG
SOMERVILLE     CLEAR     68  68 100 CALM      30.02R FOG
COVINGTON      CLEAR     66  66 100 CALM      30.02S FOG
BOLIVAR        CLEAR     66  64  94 CALM      30.03R FOG
PARIS          CLEAR     66  66 100 NE3       30.03S
HUNTINGDON     CLEAR     66  66 100 CALM      30.03R FOG
LEXINGTON      FOG       66  66 100 CALM      30.04R VSB 3/4
SELMER         CLEAR     68  66  94 CALM      30.04R
SAVANNAH       CLEAR     64  64 100 CALM      30.04R
$$

TNZ008-025-027-028-033-062-065-066-241300-
NORTH MIDDLE TENNESSEE

CITY           SKY/WX    TMP DP  RH WIND       PRES   REMARKS
NASHVILLE      PTCLDY    68  66  93 SE3       30.07R
PORTLAND       CLEAR     64  63  94 SE3       30.07R
CLARKSVILLE    CLEAR     65  63  93 CALM      30.06R FOG
SMYRNA         PTCLDY    68  66  93 S5        30.08  FOG
COOKEVILLE     FOG       61  61 100 CALM      30.09R VSB 1/2
GALLATIN       CLEAR     64  64 100 CALM      30.09S
CROSSVILLE     CLEAR     61  60  97 CALM      30.15R FOG
$$

TNZ061-075-076-078-094-096-097-241300-
SOUTH MIDDLE TENNESSEE

CITY           SKY/WX    TMP DP  RH WIND       PRES   REMARKS
FAYETTEVILLE   CLEAR     66  64  94 CALM      30.07R FOG
TULLAHOMA      CLEAR     63  61  94 CALM      30.10R
WINCHESTER     CLEAR     64  63  94 CALM      30.09R
MCMINNVILLE      N/A     63  63 100 CALM      30.09S
COLUMBIA       MOCLDY    64 N/A N/A CALM      30.05R FOG
SHELBYVILLE    CLEAR     64  64 100 CALM      30.08R FOG
$$

TNZ017-018-042-046-047-241300-
NORTHEAST TENNESSEE

CITY           SKY/WX    TMP DP  RH WIND       PRES   REMARKS
TRI CITIES     PTCLDY    58  58 100 CALM      30.16R
ELIZABETHTON   CLEAR     61  57  88 CALM      30.17R
$$

TNZ012-013-036-069-073-074-241300-
CENTRAL EAST TENNESSEE

CITY           SKY/WX    TMP DP  RH WIND       PRES   REMARKS
KNOXVILLE      CLOUDY    68  65  90 N5        30.10R
OAK RIDGE      MOCLDY    66  64  93 CALM      30.13R FOG
DOWNTOWN KNOXV CLEAR     64  64 100 CALM      30.10R FOG
GATLINBURG     CLEAR     61  61 100 CALM      30.11R
MORRISTOWN     PTCLDY    68  61  77 E3        30.12R
JACKSBORO        N/A     63  63 100 CALM      30.16R FOG
$$

TNZ083-085-099-241300-
SOUTHEAST TENNESSEE

CITY           SKY/WX    TMP DP  RH WIND       PRES   REMARKS
CHATTANOOGA    FOG       66  66 100 CALM      30.10R VSB<1/4
DAYTON         FOG       64  64 100 CALM      30.09S VSB 3/4
$$

SKY/WX REPORTED AS FAIR MEANS FEW OR NO CLOUDS BELOW
12 THOUSAND FEET.




USA.gov is the U.S. government's official web portal to all federal, state and local government web resources and services.